7 * 24
多渠道服务支持
STARLINK-33999是美国太空探索技术公司 SpaceX 星链互联网卫星星座中的一颗卫星,于2025年5月7日由美国发射入轨。该卫星属于星链项目低轨卫星组网的一部分,旨在为全球提供高速低延迟互联网接入服务,进一步拓展星链星座的全球覆盖范围与服务能力。
美国
(US)
| 数据来源 | 国际轨道数据 |
| 星历时间: | 2026-09-11T07:52:25+0800 12小时前 查看轨道信息 |
| 半长轴: | 6861.106km |
| 偏心率: | 0.0003581 |
| 轨道倾角: | 43.010° |
| 近地点辐角 | 263.330° |
| 升交点赤经 | 111.234° |
| 平近点角 | 96.714° |
| 近地点: | 480.512km |
| 远地点: | 485.426km |
| 周期: | 94.265分钟 |
| 每日圈数: | 15.276069 |